Location: San Martino di Castrozza
(46.2667°N, 11.8000°E)
Time: 03:08:55
(UTC+00:00)

Helios 1B rocket - Pass Details

Date: 23 April 2021
Orbit: 575 x 581 km, 98.2° (Epoch: 15 May)

Event Time Altitude Azimuth Distance (km) Brightness Sun altitude
Rises 01:18:02 0° 8° (N) 2,811 7.0 -24.6°
Reaches altitude 10° 01:20:14 10° 4° (N) 1,908 5.8 -24.4°
Enters shadow 01:23:44 47° 314° (NW) 778 3.0 -24.1°
